Regional Weather Roundup
Issued by NWS

Home | Current Version | Previous Version | Graphics & Text | Print | Product List | Glossary On
Versions: 1 2 3 4 5 6 7 8 9 10 11 12 13 14 15 16 17 18 19 20 21 22 23 24 25 26 27 28 29 30 31 32 33 34 35 36 37 38 39 40 41 42 43 44 45 46 47 48 49 50
000
ASUS43 KMPX 242001
RWRMN
WEATHER ROUNDUP FOR MINNESOTA
NATIONAL WEATHER SERVICE TWIN CITIES/CHANHASSEN MN
200 PM CST FRI NOV 24 2017


NOTE: "FAIR" INDICATES FEW OR NO CLOUDS BELOW 12,000 FEET WITH NO
SIGNIFICANT WEATHER AND/OR OBSTRUCTIONS TO VISIBILITY. N/A MEANS
CURRENT SKY AND/OR WEATHER CONDITIONS ARE NOT AVAILABLE.

MNZ060>063-068>070-242100-
   Twin Cities Metro

CITY           SKY/WX    TMP DP  RH WIND       PRES   REMARKS
TWIN CITIES    PTSUNNY   58  42  55 W7        29.39S
ST PAUL        PTSUNNY   58  41  53 NW9       29.38F
CRYSTAL        CLOUDY    57  39  51 W10       29.37S
LAKEVILLE      PTSUNNY   57  41  54 W10       29.39S
EDEN PRAIRIE   CLOUDY    59  41  51 W10       29.38S
SOUTH ST PAUL  PTSUNNY   59  40  48 W6        29.38R
LAKE ELMO      PTSUNNY   57  41  54 NW8       29.38S
$$
MNZ001>005-007-008-013>017-022>024-027-028-242100-
   Northwest Minnesota

CITY           SKY/WX    TMP DP  RH WIND       PRES   REMARKS
BEMIDJI        MOSUNNY   43  37  78 W16       29.40R
HALLOCK        SUNNY     41  36  81 NW12      29.45R
ROSEAU         SUNNY     43  36  75 NW9       29.39R
WARROAD        PTSUNNY   43  34  70 NW10      29.38R
CROOKSTON      SUNNY     45  37  76 NW21G31   29.49R
FOSSTON        MOSUNNY   43  36  75 NW15G21   29.46R
DETROIT LAKES  SUNNY     45  37  76 NW15G21   29.48R
MOORHEAD       SUNNY     50  37  62 NW28      29.51R
PARK RAPIDS    CLOUDY    44  39  82 NW16G25   29.42R
MAHNOMEN       FAIR      44  38  80 NW20G26   29.46R
$$
MNZ006-009>011-018-025>026-242100-
   North Central Minnesota

CITY           SKY/WX    TMP DP  RH WIND       PRES   REMARKS
FLAG ISLAND    MOSUNNY   37  30  75 NW18G25   29.35R
INTL FALLS     MOSUNNY   41  32  70 W15       29.33R
WASKISH        SUNNY     39  36  87 W10       29.37R
BIG FORK       MOSUNNY   43  37  81 W3        29.34R
LONGVILLE      CLOUDY    41  39  93 W6        29.39R
GRAND RAPIDS   CLOUDY    41  38  89 W9        29.38R
CRANE LAKE     CLOUDY    39  34  81 W8        29.32R
ORR            CLOUDY    39  30  70 NW8       29.29R
COOK           CLOUDY    39  37  93 W7        29.32R
WALKER         MOCLDY    41  37  86 W15G25    29.40R
$$
MNZ012-019>021-037-242100-
   Northeast Minnesota

CITY           SKY/WX    TMP DP  RH WIND       PRES   REMARKS
DULUTH         LGT RAIN  41  40  96 NW14      29.32R
ELY            CLOUDY    39  37  93 W7        29.28R
HIBBING        CLOUDY    39  38  96 W6        29.32R
EVELETH        CLOUDY    37  34  87 W7        29.32S
DULUTH HARBOR  DRIZZLE   43  39  87 W10       29.33R
TWO HARBORS    LGT RAIN  46  41  81 W6        29.28R
SILVER BAY     DRIZZLE   43  39  87 W5        29.26R
GRAND MARAIS     N/A     43  40  89 SW6       29.24R
G MARAIS ARPRT CLOUDY    39  34  81 W8G16     29.22R
$$
MNZ029>031-032-039>041-046>048-054>057-064-242100-
   West Central Minnesota

CITY           SKY/WX    TMP DP  RH WIND       PRES   REMARKS
FERGUS FALLS   MOSUNNY   46  43  87 NW21      29.53R
WHEATON        MOSUNNY   48  39  71 W20G26    29.56R
MORRIS         MOSUNNY   48  43  81 NW22G33   29.49R
ALEXANDRIA     PTSUNNY   47  41  80 NW13      29.47R
ELBOW LAKE     FAIR      45  41  86 W18G30    29.50R
WADENA         MOSUNNY   43  39  87 NW14G25   29.45R
GLENWOOD       CLOUDY    46  43  87 NW13      29.45S
APPLETON         N/A     52  43  71 NW17      29.51R
BENSON         MOSUNNY   50  43  76 N18       29.50R
ORTONVILLE     CLOUDY    50  39  66 NW21G30   29.54R
MADISON        MOSUNNY   54  43  66 NW18G28   29.51R
WILLMAR        FAIR      50  45  81 NW24G33   29.47R
$$
MNZ033>034-036-042>043-049>051-058-059-242100-
   Central Minnesota

CITY           SKY/WX    TMP DP  RH WIND       PRES   REMARKS
ST CLOUD       CLOUDY    51  43  74 NW22G31   29.39R
SAUK CENTRE    MOCLDY    47  41  82 NW16      29.43R
PAYNESVILLE    CLOUDY    49  44  81 NW17G25   29.44R
AITKIN         CLOUDY    43  39  87 W3        29.37R
PINE RIVER     CLOUDY    43  37  81 NW8       29.45R
BRAINERD       LGT RAIN  46  41  82 W5        29.39R
STAPLES        CLOUDY    45  39  81 NW14      29.43R
LONG PRAIRIE   CLOUDY    45  39  81 W13       29.43S
LITTLE FALLS   CLOUDY    45  36  70 NW10G16   29.42R
LITCHFIELD     CLOUDY    54  45  71 NW17G24   29.43R
BUFFALO        DRIZZLE   55  43  66 W14G25    29.41R
MAPLE LAKE     DRIZZLE   54  47  76 W15G25    29.40R
HUTCHINSON     RAIN      56  45  67 NW20G28   29.44R
$$
MNZ037-044-045-052-053-242100-
   East Central Minnesota

CITY           SKY/WX    TMP DP  RH WIND       PRES   REMARKS
PRINCETON      DRIZZLE   54  46  76 W13G18    29.38R
MORA           CLOUDY    50  43  76 NW8       29.37R
CAMBRIDGE      LGT RAIN  54  43  66 W7        29.37R
RUSH CITY      DRIZZLE   49  43  80 W5        29.36R
MOOSE LAKE     CLOUDY    43  41  93 NW7       29.34R
HINCKLEY       CLOUDY    50  45  81 NW9G16    29.36R
CLOQUET        CLOUDY    43  39  87 NW9       29.33R
MCGREGOR       CLOUDY    43  41  93 NW8       29.37R
$$
MNZ071>073-080-081-089-090-097-098-242100-
   Southwest Minnesota

CITY           SKY/WX    TMP DP  RH WIND       PRES   REMARKS
MONTEVIDEO     CLOUDY    50  43  76 N14G30    29.49R
GRANITE FALLS  CLOUDY    54  45  69 NW25G35   29.49R
CANBY          CLOUDY    54  41  62 W17G32    29.54R
MARSHALL       CLOUDY    56  42  59 NW29G36   29.48R
REDWOOD FALLS  CLOUDY    58  42  55 NW23G33   29.44R
OLIVIA         MOSUNNY   54  43  66 NW22G32   29.44R
PIPESTONE      CLOUDY    54  39  58 NW20G26   29.52R
WINDOM           N/A     61  37  41 W33       29.46R
WORTHINGTON    CLOUDY    59  38  45 W30G40    29.50S
JACKSON        PTSUNNY   61  34  36 NW24G44   29.47R
SLAYTON        CLOUDY    58  39  49 NW29G39   29.48F
$$
MNZ065>067-074>077-082>085-091>093-242100-
   South Central Minnesota

CITY           SKY/WX    TMP DP  RH WIND       PRES   REMARKS
MANKATO        CLOUDY    61  42  49 NW14      29.42S
NEW ULM        CLOUDY    63  37  39 NW20G31   29.41F
ST JAMES       SUNNY     63  37  39 W24G36    29.44F
FAIRMONT       MOSUNNY   64  40  41 NW31      29.46R
GLENCOE        LGT RAIN  59  44  56 W29       29.41R
FARIBAULT      PTSUNNY   61  43  51 W12       29.41S
OWATONNA       PTSUNNY   61  43  51 NW17G25   29.42R
WASECA         PTSUNNY   59  39  47 NW10G22   29.43F
ALBERT LEA     SUNNY     63  37  39 NW18G26   29.42S
$$
MNZ078>079-086>088-094>096-242100-
   Southeast Minnesota

CITY           SKY/WX    TMP DP  RH WIND       PRES   REMARKS
ROCHESTER      SUNNY     60  41  49 NW22G31   29.41R
RED WING       MOSUNNY   61  36  39 NW6       29.37F
STANTON        PTSUNNY   61  41  47 NW13G18   29.38F
DODGE CENTER   SUNNY     61  39  44 NW22G31   29.42R
WINONA         SUNNY     61  39  44 NW12      29.38R
AUSTIN         SUNNY     61  39  44 NW20G26   29.42R
PRESTON        SUNNY     59  40  50 NW22G29   29.40R
$$
ABBREVIATIONS USED IN REMARKS
   TC - TEMPERATURES IN CELSIUS
  WCI - WIND CHILL INDEX
   HX - HEAT INDEX
  VSB - VISIBILITY
$$




USA.gov is the U.S. government's official web portal to all federal, state and local government web resources and services.